Regional Weather Roundup
Issued by NWS

Home | Current Version | Previous Version | Text Only | Print | Product List | Glossary On
Versions: 1 2 3 4 5 6 7 8 9 10 11 12 13 14 15 16 17 18 19 20 21 22 23 24 25 26 27 28 29 30 31 32 33 34 35 36 37 38 39 40 41 42 43 44 45 46 47 48 49 50
000
ASUS44 KOUN 250110
RWROK

WEATHER ROUNDUP FOR OKLAHOMA
NATIONAL WEATHER SERVICE NORMAN OK
800 PM CDT THU APR 24 2014

NOTE: "FAIR" INDICATES FEW OR NO CLOUDS BELOW 12,000 FEET WITH NO
      SIGNIFICANT WEATHER AND/OR OBSTRUCTIONS TO VISIBILITY.

OKZ001>007-009>012-014-015-017-250200-
NORTHWEST OKLAHOMA AND THE PANHANDLE

CITY           SKY/WX    TMP DP  RH WIND       PRES   REMARKS
GAGE           PTCLDY    68  23  18 N6        29.90S
ENID/VANCE AFB CLEAR     66  35  32 N6        29.89R
ENID/WOODRING  PTCLDY    68  34  28 N12       29.90R
$$

OKZ016-021>023-033>039-044-045-250200-
SOUTHWEST OKLAHOMA

CITY           SKY/WX    TMP DP  RH WIND       PRES   REMARKS
LAWTON/REGL    CLEAR     71  35  26 N12       29.90R
LAWTON/FT SILL CLEAR     69  36  30 N8        29.89R
FREDERICK      CLEAR     71  36  27 N6        29.88R
CLINTON        PTCLDY    68  37  32 N5        29.93R
HOBART         PTCLDY    65  42  43 NE5       29.91R
ALTUS AFB      CLEAR     67  37  33 N8        29.91R
$$

OKZ018>020-024>031-250200-
CENTRAL OKLAHOMA

CITY           SKY/WX    TMP DP  RH WIND       PRES   REMARKS
OKLAHOMA CITY  MOCLDY    69  32  25 N12       29.90R
OKC/WILEY POST CLEAR     68  30  24 N8        29.90R
OKC/TINKER AFB CLEAR     67  38  34 N9        29.90R
STILLWATER     CLEAR     65  37  35 NE8       29.90R
GUTHRIE        CLEAR     70  32  24 VRB5      29.89R
$$

OKZ008-013-054>072-250200-
NORTHEAST OKLAHOMA

CITY           SKY/WX    TMP DP  RH WIND       PRES   REMARKS
TULSA          PTCLDY    65  43  44 NW15G25   29.87R
TULSA/JONES    CLEAR     67  38  34 N8G17     29.88R
PONCA CITY     CLEAR     63  35  35 E5        29.89R
BARTLESVILLE   CLEAR     61  39  44 CALM      29.90R
MUSKOGEE       CLEAR     64  43  46 NW10      29.88R
$$

OKZ032-040>043-046>053-073>077-250200-
SOUTH CENTRAL/SOUTHEAST OKLAHOMA

CITY           SKY/WX    TMP DP  RH WIND       PRES   REMARKS
ARDMORE/DWNTWN   N/A     70  36  28 N3        29.90R
MCALESTER      CLEAR     69  40  34 NW12      29.88R
$$




USA.gov is the U.S. government's official web portal to all federal, state and local government web resources and services.